Weather History for Buffalo, WY

Change the Weather History Date:

Wednesday, February 20, 2013

  Actual Average Record
Temperature  
Mean Temperature 19 °F 28 °F  
Max Temperature 24 °F 39 °F 52 °F (2000)
Min Temperature 14 °F 18 °F -3 °F (2011)
Degree Days  
Heating Degree Days 46 36  
Month to date heating degree days 747 750  
Since 1 July heating degree days 4625 4957  
Cooling Degree Days 0 0  
Month to date cooling degree days 0 0  
Year to date cooling degree days 0 0  
Moisture  
Dew Point 16 °F    
Average Humidity 77    
Maximum Humidity 88    
Minimum Humidity 65    
Precipitation  
Precipitation 0.00 in 0.01 in 0.04 in (2011)
Month to date precipitation 0.12 0.25  
Year to date precipitation 0.60 0.67  
Sea Level Pressure  
Sea Level Pressure 29.82 in    
Wind  
Wind Speed 6 mph (NNW)    
Max Wind Speed 12 mph    
Max Gust Speed -    
Visibility 10 miles    
Events      
T = Trace of Precipitation, MM = Missing Value Source: NWS Daily Summary

Daily Weather History Graph

Daily Weather History Graph

Search for Another Location

Airport:

Trip Planner

Search our weather history database for the weather conditions in past years. The results will help you decide how hot, cold, wet, or windy it might be!

Date:

Astronomy

Feb. 20, 2013 Rise Set
Actual Time 6:58 AM MST 5:43 PM MST
Civil Twilight 6:28 AM MST 6:12 PM MST
Nautical Twilight 5:55 AM MST 6:46 PM MST
Astronomical Twilight 5:21 AM MST 7:20 PM MST
Moon 1:00 PM MST (2/20) 3:27 AM MST (2/20)
Length of Visible Light 11h 43m
Length of Day
10h 44m
Waxing Gibbous, 76% of the Moon is Illuminated
Feb 20
Waxing Gibbous
Feb 25
Full
Mar 4
Last Quarter
Mar 11
New
Mar 19
First Quarter

Hourly Weather History & Observations

Time (MST) Temp. Windchill Dew Point Humidity Pressure Visibility Wind Dir Wind Speed Gust Speed Precip Events Conditions
12:53 AM 23.0 °F 14.7 °F 16.0 °F 74% 29.78 in 10.0 mi NW 6.9 mph - N/A   Clear
1:53 AM 19.9 °F 14.9 °F 14.0 °F 78% 29.79 in 10.0 mi WNW 3.5 mph - N/A   Clear
2:53 AM 21.0 °F 16.2 °F 15.1 °F 78% 29.78 in 10.0 mi WNW 3.5 mph - N/A   Clear
3:53 AM 21.0 °F 14.6 °F 14.0 °F 74% 29.78 in 10.0 mi NNW 4.6 mph - N/A   Clear
4:53 AM 21.0 °F 14.6 °F 16.0 °F 81% 29.76 in 10.0 mi NNW 4.6 mph - N/A   Clear
6:53 AM 19.0 °F 11.1 °F 15.1 °F 85% 29.83 in 10.0 mi North 5.8 mph - N/A   Clear
7:53 AM 14.0 °F 6.5 °F 10.0 °F 84% 29.87 in 10.0 mi NW 4.6 mph - N/A   Clear
8:53 AM 19.9 °F 14.9 °F 16.0 °F 85% 29.84 in 10.0 mi NW 3.5 mph - N/A   Clear
9:53 AM 23.0 °F - 17.1 °F 78% 29.83 in 10.0 mi Calm Calm - N/A   Clear
10:53 AM 23.0 °F 15.8 °F 16.0 °F 74% 29.82 in 10.0 mi North 5.8 mph - N/A   Clear
11:53 AM 23.0 °F 13.1 °F 16.0 °F 74% 29.83 in 10.0 mi North 9.2 mph - N/A   Clear
12:53 PM 24.1 °F 14.4 °F 18.0 °F 77% 29.81 in 10.0 mi North 9.2 mph - N/A   Overcast
1:14 PM 24.8 °F 14.6 °F 17.6 °F 74% 29.70 in 10.0 mi NNW 10.4 mph - N/A   Overcast
1:41 PM 23.0 °F 12.4 °F 19.4 °F 86% 29.71 in 10.0 mi NNW 10.4 mph - N/A   Overcast
1:53 PM 24.1 °F 13.1 °F 19.0 °F 81% 29.83 in 10.0 mi NNW 11.5 mph - N/A   Overcast
2:53 PM 23.0 °F 13.9 °F 18.0 °F 81% 29.85 in 10.0 mi North 8.1 mph - N/A   Overcast
3:53 PM 21.9 °F 12.5 °F 18.0 °F 85% 29.85 in 10.0 mi NW 8.1 mph - N/A   Overcast
4:03 PM 21.2 °F 12.6 °F 17.6 °F 86% 29.72 in 10.0 mi NNW 6.9 mph - N/A   Overcast
4:45 PM 21.2 °F 11.7 °F 17.6 °F 86% 29.73 in 10.0 mi NW 8.1 mph - N/A   Overcast
4:53 PM 21.9 °F 13.4 °F 17.1 °F 82% 29.85 in 10.0 mi NW 6.9 mph - N/A   Overcast
6:53 PM 23.0 °F 15.8 °F 17.1 °F 78% 29.88 in 10.0 mi NW 5.8 mph - N/A   Overcast
7:53 PM 21.9 °F 17.2 °F 17.1 °F 82% 29.91 in 10.0 mi NNW 3.5 mph - N/A   Overcast
9:53 PM 21.0 °F 12.4 °F 17.1 °F 85% 29.90 in 10.0 mi NW 6.9 mph - N/A   Overcast
10:53 PM 19.9 °F 12.1 °F 16.0 °F 85% 29.90 in 10.0 mi NNW 5.8 mph - N/A   Overcast
11:35 PM 19.4 °F 9.5 °F 15.8 °F 86% 29.78 in 9.0 mi North 8.1 mph - N/A   Overcast
11:53 PM 19.0 °F 7.5 °F 16.0 °F 88% 29.91 in 10.0 mi North 10.4 mph - N/A   Overcast